SCP
0 0 0 0 0 0 0 0 0 0 0 0 0 0 0 0 0 0 0 0 0 0 0 0 0 0 0 0 0 0 0 0 0 0 0 0 0 0 0 0 0 0 0
0 0 0 0 0 0 0 0 0 0 0 0 0 0 0 0 0 0 0 0 0 0 0 0 0 0 0 0 0 0 0 0 0 0 0 0 0 0 0 0 0 0 0
0 0 0 0 0 0 0 0 0 0 0 0 0 0 0 0 0 0 0 0 0 0 0 0 0 0 0 0 0 0 0 0 0 0 0 0 0 0 0 0 0 0 0
0 0 0 0 0 0 0 0 0 0 0 0 0 0 0 0 0 0 0 0 0 0 0 0 0 0 0 0 0 0 0 0 0 0 0 0 0 0 0 0 0 0 0
0 0 0 0 0 0 0 0 0 0 0 0 0 0 0 0 0 0 0 0 0 0 0 0 0 0 0 0 0 0 0 0 0 0 0 0 0 0 0 0 0 0 0
0 0 0 0 0 0 0 0 0 0 0 0 0 0 0 0 0 0 0 0 0 0 0 0 0 0 0 0 0 0 0 0 0 0 0 0 0 0 0 0 0 0 0
0 0 0 0 0 0 0 0 0 0 0 0 0 0 0 0 0 0 0 0 0 0 0 0 0 0 0 0 0 0 0 0 0 0 0 0 0 0 0 0 0 0 0
0 0 0 0 0 0 0 0 0 0 0 0 0 0 0 0 0 0 0 0 0 0 0 0 0 0 0 0 0 0 0 0 0 0 0 0 0 0 0 0 0 0 0
0 0 0 0 0 0 0 0 0 0 0 0 0 0 0 0 0 0 0 0 0 0 0 0 0 0 0 0 0 0 0 0 0 0 0 0 0 0 0 0 0 0 0
0 0 0 0 0 0 0 0 0 0 0 0 0 0 0 0 0 0 0 0 0 0 0 0 0 0 0 0 0 0 0 0 0 0 0 0 0 0 0 0 0 0 0
0 0 0 0 0 0 0 0 0 0 0 0 0 0 0 0 0 0 0 0 0 0 0 0 0 0 0 0 0 0 0 0 0 0 0 0 0 0 0 0 0 0 0
0 0 0 0 0 0 0 0 0 0 0 0 0 0 0 0 0 0 0 0 0 0 0 0 0 0 0 0 0 0 0 0 0 0 0 0 0 0 0 0 0 0 0
0 0 0 0 0 0 0 0 0 0 0 0 0 0 0 0 0 0 0 0 0 0 0 0 0 0 0 0 0 0 0 0 0 0 0 0 0 0 0 0 0 0 0
0 0 0 0 0 0 0 0 0 0 0 0 0 0 0 0 0 0 0 0 0 0 0 0 0 0 0 0 0 0 0 0 0 0 0 0 0 0 0 0 0 0 0
0 0 0 0 0 0 0 0 0 0 0 0 0 0 0 0 0 0 0 0 0 0 0 0 0 0 0 0 0 0 0 0 0 0 0 0 0 0 0 0 0 0 0
0 0 0 0 0 0 0 0 0 0 0 0 0 0 0 0 0 0 0 0 0 0 0 0 0 0 0 0 0 0 0 0 0 0 0 0 0 0 0 0 0 0 0
0 0 0 0 0 0 0 0 0 0 0 0 0 0 0 0 0 0 0 0 0 0 0 0 0 0 0 0 0 0 0 0 0 0 0 0 0 0 0 0 0 0 0
0 0 0 0 0 0 0 0 0 0 0 0 0 0 0 0 0 0 0 0 0 0 0 0 0 0 0 0 0 0 0 0 0 0 0 0 0 0 0 0 0 0 0
0 0 0 0 0 0 0 0 0 0 0 0 0 0 0 0 0 0 0 0 0 0 0 0 0 0 0 0 0 0 0 0 0 0 0 0 0 0 0 0 0 0 0
0 0 0 0 0 0 0 0 0 0 0 0 0 0 0 0 0 0 0 0 0 0 0 0 0 0 0 0 0 0 0 0 0 0 0 0 0 0 0 0 0 0 0
0 0 0 0 0 0 0 0 0 0 0 0 0 0 0 0 0 0 0 0 0 0 0 0 0 0 0 0 0 0 0 0 0 0 0 0 0 0 0 0 0 0 0
0 0 0 0 0 0 0 0 0 0 0 0 0 0 0 0 0 0 0 0 0 0 0 0 0 0 0 0 0 0 0 0 0 0 0 0 0 0 0 0 0 0 0
0 0 0 0 0 0 0 0 0 0 0 0 0 0 0 0 0 0 0 0 0 0 0 0 0 0 0 0 0 0 0 0 0 0 0 0 0 0 0 0 0 0 0
0 0 0 0 0 0 0 0 0 0 0 0 0 0 0 0 0 0 0 0 0 0 0 0 0 0 0 0 0 0 0 0 0 0 0 0 0 0 0 0 0 0 0
0 0 0 0 0 0 0 0 0 0 0 0 0 0 0 0 0 0 0 0 0 0 0 0 0 0 0 0 0 0 0 0 0 0 0 0 0 0 0 0 0 0 0
0 0 0 0 0 0 0 0 0 0 0 0 0 0 0 0 0 0 0 0 0 0 0 0 0 0 0 0 0 0 0 0 0 0 0 0 0 0 0 0 0 0 0
Wind_Speed
8 9 10 10 10 10 9 8 8 7 7 7 6 6 6 6 5 5 4 4 4 3 3 4 4 4 3 3 3 3 3 4 10 10 5 6 8 9 9 7 9 9 10
9 10 11 10 10 10 9 8 8 8 7 6 6 6 6 5 5 5 4 4 4 3 4 4 4 4 4 4 4 4 4 5 7 14 10 8 9 9 10 10 9 9 9
9 11 11 10 10 10 9 8 7 8 7 6 6 6 6 5 4 4 4 3 3 3 3 4 4 4 4 4 4 5 5 6 6 9 12 8 8 7 10 9 9 8 9
9 10 10 9 9 9 8 8 7 7 7 6 6 5 5 4 4 3 3 3 3 3 3 3 4 4 4 5 5 5 5 6 6 8 10 9 8 8 7 9 11 8 8
9 10 9 8 8 8 8 7 7 6 6 6 6 5 4 3 3 3 2 2 2 3 3 3 4 5 6 6 6 6 6 6 7 8 9 9 9 9 9 8 12 12 10
9 9 8 8 8 8 7 7 7 6 5 5 5 4 4 2 5 5 3 2 2 2 3 4 4 4 6 10 11 11 10 9 9 8 9 11 12 11 10 10 11 12 11
9 9 8 8 8 7 7 7 6 5 5 5 4 4 3 3 5 5 4 2 2 2 3 4 4 4 6 6 9 11 10 12 13 10 11 11 12 11 11 12 11 12 12
9 8 8 8 8 7 6 6 5 4 4 3 3 3 3 3 5 5 4 2 2 3 3 4 5 6 6 8 7 7 7 7 10 7 8 10 10 9 8 10 11 11 10
9 9 7 8 8 7 7 6 4 4 3 3 2 2 2 3 5 6 5 1 2 3 4 4 5 6 11 14 9 9 10 8 10 13 14 13 15 16 12 7 8 8 10
10 8 7 7 7 7 6 5 3 3 3 3 2 2 2 2 5 6 6 1 2 3 4 4 6 9 13 14 8 8 10 9 8 8 9 10 9 9 12 6 6 7 7
8 8 7 6 6 6 5 4 4 3 3 2 2 2 1 2 4 6 7 2 3 4 4 4 5 13 14 15 12 7 10 11 8 7 6 6 5 5 5 5 4 5 6
9 8 7 6 5 5 6 5 4 4 4 2 2 1 1 2 3 5 7 7 7 4 4 4 6 14 15 14 10 11 13 9 5 5 5 5 6 6 6 6 6 5 4
9 8 7 6 5 5 5 5 4 3 3 2 1 0 1 2 3 6 7 9 10 5 4 9 12 14 12 8 10 11 7 4 4 4 5 5 5 6 6 5 5 5 4
10 9 7 7 6 4 3 3 3 3 3 2 1 1 1 2 3 3 3 4 6 6 5 6 10 11 9 7 5 5 3 3 3 4 5 5 5 5 4 4 4 5 4
9 8 7 6 6 5 3 2 3 2 3 3 3 2 2 2 4 8 5 3 3 4 5 3 3 3 3 4 3 3 3 3 3 4 4 5 5 5 4 4 4 4 3
9 8 6 5 5 4 4 2 1 1 2 2 2 2 2 4 7 8 8 9 10 9 4 2 3 3 3 4 5 4 3 3 4 4 4 4 4 5 5 4 3 3 4
9 8 6 6 5 5 4 4 2 0 1 1 1 2 3 4 6 7 7 7 7 6 2 2 2 3 4 4 4 4 4 4 3 3 3 3 4 4 4 4 4 3 4
7 7 7 6 5 5 4 4 3 3 2 1 3 4 4 4 5 5 5 4 3 3 1 2 3 3 3 4 4 4 4 4 3 3 3 3 3 3 3 3 3 4 4
7 6 5 5 4 4 4 4 3 3 3 2 2 3 4 5 4 4 3 1 1 2 2 2 3 3 3 3 3 3 3 3 3 3 3 3 3 3 3 3 3 4 3
5 7 7 6 5 5 4 4 4 4 3 3 3 3 2 1 1 2 1 1 2 2 3 3 3 3 3 3 3 3 3 3 3 3 3 3 3 3 3 3 3 3 3
6 6 7 6 5 5 5 5 5 4 4 4 4 4 5 2 2 3 3 3 3 3 3 3 3 3 3 3 3 3 4 3 3 3 3 3 3 3 3 3 3 3 3
6 6 6 6 5 5 5 4 4 4 4 4 3 4 6 2 2 3 3 4 4 4 4 3 4 4 3 3 3 3 4 4 4 3 3 3 3 3 3 3 3 2 2
6 6 6 5 5 5 5 4 4 4 4 4 4 3 3 3 3 4 4 4 4 4 4 3 4 4 4 4 4 4 5 5 4 4 4 4 3 3 3 3 3 3 3
7 7 7 6 5 5 5 5 5 5 5 4 4 4 4 4 4 5 4 4 4 4 4 4 5 6 7 5 4 4 5 5 5 4 6 5 5 4 3 3 3 4 3
7 7 7 6 6 6 5 5 5 5 5 5 5 4 4 4 5 5 4 4 5 5 6 5 5 6 7 8 7 6 8 10 8 5 5 5 5 5 4 5 4 3 3
7 7 6 5 5 5 6 5 5 5 5 5 5 5 5 5 5 5 4 4 4 5 6 5 6 8 8 7 8 10 10 11 11 10 6 5 6 6 5 4 5 4 4
Wind_Direction
111 110 108 106 107 106 105 107 107 102 98 97 97 93 87 79 74 75 69 57 55 38 24 17 1 351 346 340 335 327 313 303 292 299 309 320 321 319 315 308 307 305 307
111 108 107 107 107 106 107 105 103 99 93 94 95 92 87 81 75 75 71 57 49 32 13 5 352 348 343 339 335 324 317 312 301 303 310 316 314 314 312 311 311 309 304
114 112 110 110 110 110 110 105 101 100 95 90 91 91 89 86 80 71 70 57 44 25 5 353 342 342 336 333 325 317 314 309 301 299 304 309 308 311 312 308 303 300 302
116 115 114 114 114 113 109 103 100 100 99 93 88 88 89 91 86 79 69 57 34 10 351 339 332 330 322 321 314 308 305 304 300 299 302 307 308 310 312 317 317 314 308
122 119 118 115 112 110 107 103 99 95 95 96 92 85 82 87 81 80 73 50 18 352 339 328 320 317 314 316 312 309 308 304 304 303 303 308 311 320 321 318 315 315 306
127 124 123 120 116 113 111 109 105 99 96 95 92 93 84 69 58 55 57 43 0 337 326 322 315 310 313 319 316 313 311 308 306 303 303 306 309 313 315 316 315 316 312
129 129 129 127 122 120 119 114 109 106 103 97 90 85 75 51 45 40 40 29 337 320 315 316 317 311 306 300 305 309 304 299 300 297 297 301 305 311 312 311 311 309 301
137 137 136 133 128 125 120 115 110 106 104 101 87 74 67 36 27 24 17 17 327 313 306 303 304 307 307 312 305 299 292 288 294 293 285 291 298 303 301 302 303 301 292
147 146 145 141 137 133 128 122 117 113 104 95 88 72 58 17 12 10 10 348 328 313 303 298 298 299 310 319 314 305 303 298 303 302 301 304 310 316 319 315 315 315 310
155 148 142 140 139 137 133 126 117 117 110 100 81 60 43 3 358 1 1 344 316 311 310 306 304 314 317 320 312 304 304 307 309 309 309 311 312 314 323 319 311 309 309
140 135 133 133 132 131 125 119 124 120 111 99 86 50 21 357 346 351 349 336 307 309 311 312 308 318 319 319 318 307 304 312 310 308 308 310 312 315 319 318 309 302 302
137 136 134 131 129 128 127 126 124 126 122 115 100 54 357 338 335 336 339 333 327 309 302 303 303 314 317 319 319 317 322 326 317 313 313 313 318 320 319 316 311 305 292
138 138 137 131 126 132 138 138 134 135 136 133 123 110 306 310 316 330 330 328 324 316 299 306 312 316 319 320 322 329 336 332 322 316 312 310 311 310 315 318 316 317 309
144 144 144 142 140 137 137 144 150 156 151 148 163 215 272 292 290 290 288 303 312 311 306 308 316 321 326 328 331 336 334 323 313 306 306 309 314 319 324 331 327 332 330
146 147 149 150 150 148 145 159 166 179 177 176 192 203 228 273 291 313 319 310 307 299 312 313 323 327 331 328 324 320 322 330 325 316 315 316 320 324 326 335 332 337 337
151 156 159 156 155 155 152 143 155 167 215 230 225 231 240 278 308 321 322 324 326 327 335 324 317 319 318 317 317 317 315 318 317 314 316 319 321 322 324 331 337 341 335
160 162 161 161 163 164 162 157 156 22 345 341 311 303 297 309 317 321 325 335 346 4 12 320 310 310 307 308 307 307 307 312 311 309 312 318 321 321 323 329 335 337 332
157 161 163 165 166 165 166 166 165 168 189 276 315 312 321 323 321 325 343 10 358 4 319 293 294 296 296 296 296 298 301 309 310 310 313 318 322 319 321 326 329 327 321
164 166 163 159 161 162 163 165 171 182 195 220 267 298 317 320 326 339 17 69 265 280 281 279 279 282 283 285 288 291 294 297 302 305 305 308 313 313 311 316 318 321 321
171 169 163 163 163 167 172 177 183 189 198 211 226 240 259 270 280 300 301 253 251 258 262 267 272 273 277 280 284 287 291 290 293 291 293 296 300 298 297 301 305 309 306
169 171 168 167 176 181 183 188 189 191 201 214 227 238 239 208 225 240 247 247 245 249 252 255 258 263 265 269 271 275 277 279 278 276 280 284 286 287 288 289 291 292 296
170 173 177 183 182 185 189 190 191 198 206 218 229 252 263 235 227 240 245 248 246 242 239 242 249 249 248 251 255 260 264 267 269 270 272 273 272 271 277 280 285 288 289
175 177 181 185 186 187 189 194 197 202 210 218 224 230 239 236 236 240 246 249 250 250 245 239 247 256 252 246 242 242 250 256 256 254 259 264 263 261 259 263 269 275 276
182 185 187 188 190 194 197 201 205 208 211 216 221 227 232 235 238 244 246 248 248 249 246 241 243 251 258 258 250 244 246 252 250 244 241 246 253 253 249 251 254 254 260
186 188 192 194 194 198 200 204 209 212 215 219 222 227 232 237 242 246 246 246 251 253 255 249 246 249 255 257 257 255 260 266 260 241 231 233 242 242 241 244 246 247 248
190 193 195 195 198 199 202 207 212 215 219 223 226 229 232 236 242 245 245 246 249 253 257 253 249 251 254 256 260 264 262 262 255 241 222 223 230 234 230 235 238 238 241